Tracking 20626 objects as of 8-Apr-2020
HD Live streaming from Space Station
objects crossing your sky now

FOX-1D (AO-92)

Track FOX-1D (AO-92) now!
10-day predictions
FOX-1D (AO-92) is classified as:


NORAD ID: 43137
Int'l Code: 2018-004A
Perigee: 495.6 km
Apogee: 506.3 km
Inclination: 97.5 °
Period: 94.5 minutes
Semi major axis: 6871 km
RCS: Unknown
Launch date: January 12, 2018
Source: United States (US)
Launch site: SRIHARIKOTA (SRI)

Uplink (MHz): 435.350/1267.350
Downlink (MHz): 145.880
Beacon (MHz): 145.880
Mode: FM CTCSS 67.0Hz/200bps DUV
Call sign:
Status: Active

aabbcc
Your satellite tracking list
Your tracking list is empty




NASA's NSSDC Master Catalog

Two Line Element Set (TLE):
1 43137U 18004AC  20099.42888089 +.00000914 +00000-0 +40699-4 0  9994
2 43137 097.4508 171.0507 0007752 308.2647 051.7892 15.23986969124383
Source of the keplerian elements: AMSAT